GIOVE-A 1 28922U 05051A 10208.86103548 +.00000003 +00000-0 +10000-3 0 07142 2 28922 056.1085 146.7216 0010074 347.2396 012.7015 01.69471603028444 GIOVE-B 1 32781U 08020A 10210.09264796 +.00000043 +00000-0 +10000-3 0 03375 2 32781 055.9247 181.3502 0021406 225.7326 134.0486 01.70949426014086